Regional Weather Roundup
Issued by NWS Newport/Morehead, NC

Current Version | Previous Version | Graphics & Text | Print | Product List | Glossary Off
Versions: 1 2 3 4 5 6 7 8 9 10 11 12 13 14 15 16 17 18 19 20 21 22 23 24 25 26 27 28 29 30 31 32 33 34 35 36 37 38 39 40 41 42 43 44 45 46 47 48 49 50

000
ASUS42 KMHX 201210
RWRMHX
WEATHER ROUNDUP FOR EASTERN NORTH CAROLINA
NATIONAL WEATHER SERVICE NEWPORT/MOREHEAD CITY NC
700 AM EST SAT DEC 20 2014

NOTE: "FAIR" INDICATES FEW OR NO CLOUDS BELOW 12,000 FEET
WITH NO SIGNIFICANT WEATHER AND/OR OBSTRUCTIONS TO VISIBILITY

NCZ015>017-031-032-045>047-102-103-201300-
NORTH COAST

CITY           SKY/WX    TMP DP  RH WIND       PRES   REMARKS
EDENTON          N/A     33  29  86 N5        30.28S
ELIZABETH CITY CLOUDY    39  30  70 N6        30.28R
KITTY HAWK     CLOUDY    39  33  78 NW3       30.25R
MANTEO         CLOUDY    40  33  76 N6        30.26R

$$

NCZ045>047-081-094-103-104-201300-
CENTRAL COAST

CITY           SKY/WX    TMP DP  RH WIND       PRES   REMARKS
FRISCO         CLOUDY    42  34  73 N3        30.25R
SWANQUARTER      N/A     37 N/A N/A N2        30.24S

$$

NCZ095-097-098-100-101-201300-
SOUTHERN COAST

CITY           SKY/WX    TMP DP  RH WIND       PRES   REMARKS
BEAUFORT       LGT RAIN  43  36  76 NE6       30.26R
CEDAR ISLAND     N/A     45 N/A N/A N10       30.30R
JACKSONVILLE   CLOUDY    42  36  79 NE8       30.24S
PINEY ISLAND   CLOUDY    45  37  73 NE8       30.26R
WILMINGTON     LGT RAIN  43  39  86 NE7       30.23R


$$

NCZ011>013-027>030-043-044-078>080-089-090>093-098-201300-
COASTAL PLAIN

CITY           SKY/WX    TMP DP  RH WIND       PRES   REMARKS
AHOSKIE        CLOUDY    32  26  81 CALM      30.30R
CLINTON        RAIN      40  35  84 NE3       30.26R
ELIZABETHTOWN  DRIZZLE   41  34  77 CALM      30.23R
GOLDSBORO      CLOUDY    37  36  97 NE2       30.26R
GREENVILLE     CLOUDY    34  32  93 CALM      30.29R
HAVELOCK       CLOUDY    41  36  82 NE5       30.27R
KENANSVILLE    CLOUDY    37  34  88 CALM      30.26S
KINSTON        CLOUDY    36  34  93 NE5       30.29R
NEW BERN       CLOUDY    40  35  83 NE5       30.28R
RICHLANDS      CLOUDY    37  32  81 NE8       30.26R
ROCKY MOUNT    CLOUDY    33  27  78 NE3       30.29R
WASHINGTON     CLOUDY    34  31  87 CALM      30.29R
WHITEVILLE     DRIZZLE   42  38  87 NE5       30.21S

$$

AMZ130-135-150-152-154-156-158-170-250-252-270-ANZ085-086-088-633-658-670-201300-
MARINE OBSERVATIONS

STATION/POSITION TIME  TEMP    WIND        PRES    WAVE   SWELL
                       AIR SEA DIR/SP/G            HT/PER HT/PER
                 (UTC) (F)     (DEG/KT/KT) (MB)    (FT/S) (FT/S)
CHESAPEAKE LIGHT 1100   39      10/  7/  9 1025.3
64 E VA BEACH    1200   43 54  340/  8/ 10 1024.1    2/ 5   2/ 5
DUCK             1200   41 46  350/ 10/ 12 1023.9
2 E DUCK         1200      46                N/A     2/ 5
10 NE DUCK       1100      52                N/A     3/ 5
OREGON INLET     1200   42 49  360/  5/  8 1024.1
13E OREGON INLT  1200      52                N/A     3/ 6
HATTERAS CG      1200   44 51   40/  3/  5 1024.7
DIAMOND BUOY     1200   46                 1024.2    3/ 7
17 S OCRACOKE    NOT AVBL
CAPE LOOKOUT     1100   47      10/  7/  9 1023.7
BEAUFORT LAB     1200   43 53   50/  4/  6 1023.3
30 SE NEW RIVER  1100   52 60   50/ 12/ 16 1023.3
5 SE WRIGHTSVLE  NOT AVBL
225 S CAPE HAT   1135   65 72   50/ 12/ 16 1021.1    3/10   2/10
41 SE CHARLESTON 1200   64 69   50/ 17/ 21 1019.6    4/ 5   2/11

$$


USA.gov is the U.S. government's official web portal to all federal, state and local government web resources and services.